Regional Weather Roundup
Issued by NWS

Home | Current Version | Previous Version | Text Only | Print | Product List | Glossary Off
Versions: 1 2 3 4 5 6 7 8 9 10 11 12 13 14 15 16 17 18 19 20 21 22 23 24 25 26 27

000
ASUS42 KTBW 231817
RWRFL
FLORIDA REGIONAL WEATHER ROUNDUP
NATIONAL WEATHER SERVICE TAMPA BAY RUSKIN FL
100 PM EST THU NOV 23 2017

NOTE: "FAIR" INDICATES FEW OR NO CLOUDS BELOW 12,000 FEET WITH NO
SIGNIFICANT WEATHER AND/OR OBSTRUCTIONS TO VISIBILITY.

FLZ001>010-012>015-112-114-115-231900-
PANHANDLE FLORIDA

CITY           SKY/WX    TMP DP  RH WIND       PRES   REMARKS
PENSACOLA      SUNNY     66  39  37 N13       29.96F
PENSACOLA NAS  SUNNY     67  38  34 N8        29.95F
CRESTVIEW      SUNNY     67  47  48 N6        29.96F
DUKE FIELD     FAIR      67  48  49 N7        29.94F
VALPARAISO     MOSUNNY   68  50  53 NE6       29.94F
MARY ESTHER    SUNNY     69  49  47 N8        29.93F
PANAMA CITY    PTSUNNY   69  54  58 N8        29.92F
TYNDALL AFB    SUNNY     70  56  61 N8        29.92F
APALACHICOLA   MOSUNNY   67  60  78 NE10      29.91F

STATION/POSITION SKY/WX   TEMP    WIND        PRES    WAVE   SWELL
                          AIR SEA DIR/SP/G            HT/PER HT/PER
                          (F)     (DEG/KT/KT) (MB)    (FT/S) (FT/S)
29.2N   88.2W              64 77  360/ 12/ 16 1015.4
28.8N   86.0W              66 76   10/ 14/ 17 1012.5F   4/ 5
PANAMA CITY BEAC           68 70   10/  8/ 11 1013.8F
TOWER C                    62      40/ 17/ 19 1012.8F
28.5N   84.5W              69 75   40/ 19/ 23   N/A     7/ 7

$$
FLZ011-016>038-118-127-128-134-139-239-231900-
NORTH FLORIDA

CITY           SKY/WX    TMP DP  RH WIND       PRES   REMARKS
MARIANNA       CLOUDY    67  51  56 N7        29.94F
TALLAHASSEE    CLOUDY    63  60  90 NE7       29.92F
PERRY          CLOUDY    63  61  96 NE7       29.92F FOG
LIVE OAK       PTSUNNY   61  61 100 NE7G16    29.93F FOG
CROSS CITY     RAIN      62  62  98 N8        29.93F
LAKE CITY      LGT RAIN  59  59 100 NE7       29.90F
GAINESVILLE    LGT RAIN  63  61  93 NE8       29.90F
WILLISTON      MOSUNNY   64  64 100 CALM      29.86F FOG
PALATKA        HVY RAIN  64  64 100 NE9G18    29.87F
MAYPORT NAS    LGT RAIN N/A N/A N/A NE21G28   29.90F
JACKSONVILLE   LGT RAIN  64  62  93 NE16      29.90F
JAX NAS        LGT RAIN  65  63  93 NE15      29.90F
JAX CECIL      RAIN      63  63 100 NE18      29.90F
ST AUGUSTINE   LGT RAIN  66  64  94 NE17      29.87F FOG
PALM COAST     RAIN      64  64 100 N6        29.87S

STATION/POSITION SKY/WX   TEMP    WIND        PRES    WAVE   SWELL
                          AIR SEA DIR/SP/G            HT/PER HT/PER
                          (F)     (DEG/KT/KT) (MB)    (FT/S) (FT/S)
SHELL POINT      NOT AVBL
KEATON BEACH               62      40/  8/ 11 1011.9F
CEDAR KEY                  64      50/ 13/ 16 1010.9F
FERNANDINA                 63 66   20/  9/ 20 1013.8F
30.7N   81.3W                 67                N/A     6/ 6   2/11
MAYPORT                    65 67   40/ 19/ 23 1012.9F
31.4N   80.9W              63 67   50/ 19/ 21 1013.8F   6/ 6   2/ 9
ST AUGUSTINE               67 69   30/ 16/ 18 1011.3F

$$
FLZ040-043>046-052-053-057-058-063-144-231900-
INTERIOR CENTRAL FLORIDA

CITY           SKY/WX    TMP DP  RH WIND       PRES   REMARKS
OCALA          RAIN      63  63 100 NE8       29.84F FOG
THE VILLAGES   FOG       64  64 100 E7G13     29.75F VSB 3/4
LEESBURG       CLOUDY    67  66  97 NE16      29.85F
SANFORD        LGT RAIN  75  69  81 SW8       29.82F
ORLANDO EXEC   CLOUDY    75  70  84 SW10      29.83F
ORLANDO INTL   CLOUDY    74  71  91 SW6       29.83F
KISSIMMEE      CLOUDY    74  70  87 SW5       29.84F
WINTER HAVEN   PTSUNNY   73  70  90 S7        29.83F
LAKELAND       PTSUNNY   73  70  88 S10       29.82F
SEBRING        FAIR      81  66  61 SW12      29.81F
OKEECHOBEE     MOSUNNY   79  70  73 S10       29.82F

$$
FLZ041-047-054-059-064-141-147-231900-
EAST CENTRAL FLORIDA

CITY           SKY/WX    TMP DP  RH WIND       PRES   REMARKS
ORMOND BEACH   LGT RAIN  66  66 100 N5        29.87R
DAYTONA BEACH  CLOUDY    68  68 100 NW10      29.85F
DELAND         CLOUDY    66  66 100 N10       29.85F
NEW SMYRNA BEA CLOUDY    73  70  88 SW12      29.84F
JFK SPACE CTR  CLOUDY    77  74  90 SW10      29.81F
TITUSVILLE     MOSUNNY   79  72  78 S14       29.82F
CAPE CANAVERAL CLOUDY    76  70  79 S7        29.81F
PATRICK AFB    CLOUDY    78  70  75 S6        29.81F
MELBOURNE      CLOUDY    80  68  66 S9        29.81F
VERO BEACH     MOSUNNY   83  67  58 S16G22    29.82F
FT PIERCE      MOSUNNY   83  70  64 S9G21     29.82F
STUART         PTSUNNY   84  68  58 S12       29.84F

STATION/POSITION SKY/WX   TEMP    WIND        PRES    WAVE   SWELL
                          AIR SEA DIR/SP/G            HT/PER HT/PER
                          (F)     (DEG/KT/KT) (MB)    (FT/S) (FT/S)
28.5N   80.2W              77 78  160/ 16/ 17 1009.5F   5/ 9   3/ 9
TRIDENT PIER                      170/  5/  7   N/A
27.5N   80.2W                 79                N/A     4/ 9   2/11

$$
FLZ050-056-061-142-242-148-248-149-249-151-251-155-255-
160-260-231900-
WEST CENTRAL FLORIDA

CITY           SKY/WX    TMP DP  RH WIND       PRES   REMARKS
CRYSTAL RIVER  RAIN      63  63 100 NE8       29.84F
INVERNESS      HVY RAIN  63  63 100 NE6       29.84F
BROOKSVILLE    HVY RAIN  66  65  96 NE14      29.80F FOG
CLEARWATER AIR CLOUDY    73  68  83 S17       29.78F
ST PETE CLEARW PTSUNNY   78  68  71 S22G29    29.78F
TAMPA INTL     PTSUNNY   77  68  73 S18G25    29.79F
TAMPA EXEC     CLOUDY    77  68  73 S14G21    29.81F
PLANT CITY     CLOUDY    77  68  73 S8G20     29.82F
MACDILL AFB    MOSUNNY   77  66  69 S16G24    29.80F
PETER O KNIGHT   N/A    N/A N/A N/A S18       29.80F
ST PETERSBURG  CLOUDY    75  68  78 S18       29.78F
SARASOTA       CLOUDY    73  69  87 S13       29.78F
VENICE         FAIR      72  72 100 S13G20    29.82F FOG

STATION/POSITION SKY/WX   TEMP    WIND        PRES    WAVE   SWELL
                          AIR SEA DIR/SP/G            HT/PER HT/PER
                          (F)     (DEG/KT/KT) (MB)    (FT/S) (FT/S)
27.3N   84.2W                 78                N/A     5/ 7
CLEARWATER BEACH           73 70  180/ 21/ 28 1008.4F
MIDDLE TAMPA BAY           72     200/ 15/ 17 1009.0F
VENICE                     72 72  190/ 21/ 23 1009.7F

$$
FLZ066-069-070-075>078-162-262-165-265-231900-
SOUTHWEST FLORIDA AND KEYS

CITY           SKY/WX    TMP DP  RH WIND       PRES   REMARKS
PUNTA GORDA    CLOUDY    76  69  79 SW22      29.85F
FT MYERS       CLOUDY    82  71  69 SW17      29.82F
SOUTHWEST INTL CLOUDY    83  70  64 SW21      29.83F
NAPLES         MOSUNNY   81  71  71 S16       29.83F
MARCO ISLAND   CLOUDY    79  71  76 S13       29.85F
IMMOKALEE      LGT RAIN  81  70  69 SW10G18   29.84F
MARATHON       MOSUNNY   85  72  65 S9        29.85F
KEY WEST NAS   SUNNY     82  76  81 SW10      29.86F
KEY WEST INTL  MOSUNNY   80  73  79 SW10      29.87S

STATION/POSITION SKY/WX   TEMP    WIND        PRES    WAVE   SWELL
                          AIR SEA DIR/SP/G            HT/PER HT/PER
                          (F)     (DEG/KT/KT) (MB)    (FT/S) (FT/S)
NAPLES                        77  180/ 12/ 14 1010.3F
DRY TORTUGAS               79     240/ 13/ 14 1010.7F
SAND KEY                   78                 1011.9F
MOLASSES REEF              79 80  180/ 10/ 12 1010.9F

$$
FLZ067-068-071>074-168-172>174-231900-
SOUTHEAST FLORIDA

CITY           SKY/WX    TMP DP  RH WIND       PRES   REMARKS
W PALM BEACH   PTSUNNY   82  70  66 S14       29.83F
BOCA RATON     MOSUNNY   82  70  65 S17       29.84F
FT LAUDER-EXEC TSTM      79  75  87 SE16G24   29.83F
FT LAUDERDALE  PTSUNNY   81  74  79 SE15G22   29.82F
POMPANO BEACH  PTSUNNY   81  73  76 SE15      29.83F
PEMBROKE PINES PTSUNNY   84  71  65 SE16      29.84F
OPA LOCKA      PTSUNNY   83  74  74 S15       29.84F
MIAMI          LGT RAIN  81  72  74 SE13      29.84F
WEST KENDALL   LGT RAIN  75  70  84 W5        29.84F
HOMESTEAD      MOSUNNY   83  77  80 SE13      29.83F

STATION/POSITION SKY/WX   TEMP    WIND        PRES    WAVE   SWELL
                          AIR SEA DIR/SP/G            HT/PER HT/PER
                          (F)     (DEG/KT/KT) (MB)    (FT/S) (FT/S)
PORT EVERGLADES            80     150/ 11/ 17 1010.5F
VIRGINIA KEY               79 78  130/ 11/ 14 1010.3F
LAKE WORTH                 78 80  170/ 18/ 20 1011.2F
FOWEY ROCKS                78 80  140/ 22/ 23 1010.9F
SETTLEMENT POINT           80     170/ 10/ 13 1011.0F

$$





USA.gov is the U.S. government's official web portal to all federal, state and local government web resources and services.